Retour au catalogue

LEMUR-2 IRINA

ActifScienceSSO
NORAD 68480·PAYLOAD·🇱🇺 Luxembourg

Lancé Mar 30, 2026 depuis Vandenberg Space Force Base

Loading…

Prochains Passages (prochaines 24 heures)

TLE

FraisSource: Space-Track

Époque: Sep 14, 2026, 03:00 UTC

1 68480U 26067BS  26257.12563398  .00001999  00000-0  19586-3 0  9996
2 68480  97.7722 214.4085 0003774   2.5015 357.6223 14.93390190 25004

Suivez LEMUR-2 IRINA en temps réel avec AllMySat

Download on the App Store